Weather Roundup
Issued by NWS

Home | Current Version | Previous Version | Graphics & Text | Print | Product List | Glossary On
Versions: 1 2 3 4 5 6 7 8 9 10 11 12 13 14 15 16 17 18 19 20 21 22 23 24 25 26 27 28 29 30 31 32 33 34 35 36 37 38 39 40 41 42 43 44 45 46 47 48 49 50
000
NZUS93 KARX 251310
HRRWXR

CURRENT HOURLY OBSERVATIONS ACROSS
MUCH OF THE UPPER MISSISSIPPI VALLEY
NATIONAL WEATHER SERVICE LA CROSSE WI
800 AM CDT WED MAY 25 2016


...SOUTHEAST MINNESOTA...


CITY           SKY/WX    TMP DP  RH WIND       PRES   REMARKS
ROCHESTER      CLOUDY    66  62  87 SE14      29.94R
ROCHESTER/MAYO PTSUNNY   66  61  84 SE8       29.94R
WINONA         CLOUDY    66  61  82 SE6       29.94R
AUSTIN         CLOUDY    64  61  88 S8        29.93S
ALBERT LEA     TSTM      64  63  94 S7        29.92F
DODGE CENTER   PTSUNNY   66  61  82 S12       29.94R
PRESTON        PTSUNNY   65  61  85 S5        29.95R
OWATONNA       PTSUNNY   70  61  73 SE14      29.92R
FARIBAULT      CLOUDY    68  61  77 E8        29.90R
$$

...ELSEWHERE IN MINNESOTA...


CITY           SKY/WX    TMP DP  RH WIND       PRES   REMARKS
MINNEAPOLIS    CLOUDY    70  58  65 SE15      29.89S
INTNL FALLS    CLOUDY    55  54  96 E7        29.97S FOG
DULUTH         DRZL/FOG  50  49  96 E14       30.02R VSB 1/4
RED WING       PTSUNNY  N/A N/A N/A E3        29.91R
REDWOOD FALLS  TSTM      63  59  87 SW22G31   29.87R VSB 1
MANKATO        CLOUDY    68  57  68 S16       29.89R
WORTHINGTON    LGT RAIN  65  59  81 SE10      29.84F
FAIRMONT       CLOUDY    64  57  77 S12       29.89S
$$

...SOUTHWEST WISCONSIN...


CITY           SKY/WX    TMP DP  RH WIND       PRES   REMARKS
LA CROSSE      PTSUNNY   67  58  72 E5        29.94R
PRAIRIE DU CHI CLOUDY    64  60  90 CALM      29.95S
BOSCOBEL       CLOUDY    65  61  87 NE3       29.96R
LONE ROCK      CLOUDY    67  61  81 CALM      29.98R
PLATTEVILLE    PTSUNNY   70  65  84 S9        29.98R
FORT MC COY    CLOUDY    64  58  83 CALM      29.97R
MAUSTON-NEW LI CLOUDY    65  60  82 SE3       29.98R
VIROQUA        FAIR      67  59  74 SE10      29.97R
WIS DELLS      CLOUDY    67  59  75 E5        29.99R
$$

...ELSEWHERE IN WISCONSIN...


CITY           SKY/WX    TMP DP  RH WIND       PRES   REMARKS
MILWAUKEE      PTSUNNY   71  60  68 CALM      30.00R
MADISON        CLOUDY    69  62  78 SE5       29.99R
GREEN BAY      CLOUDY    57  56  96 NE14      30.05R FOG
EAU CLAIRE     CLOUDY    66  58  75 SE10      29.95S
BLACK RVR FLS  FAIR      64  60  88 CALM      29.96S
MEDFORD        MOSUNNY   62  60  94 E5        30.01R
WAUSAU         CLOUDY    61  57  87 E8        30.01R
WIS RAPIDS     CLOUDY    66  57  72 E8        30.01R
MARSHFIELD     MOSUNNY   64  58  80 E8        30.00R
RICE LAKE      CLOUDY    65  58  79 SE5       29.98R
$$

...NORTHEAST IOWA...


CITY           SKY/WX    TMP DP  RH WIND       PRES   REMARKS
WATERLOO       LGT RAIN  65  62  90 CALM      29.95R FOG
DUBUQUE        CLOUDY    66  63  90 S12       29.97S
DECORAH        CLOUDY    64  64 100 VRB5      29.95S
MASON CITY     CLOUDY    64  64 100 S7        29.94F FOG
CHARLES CITY   CLOUDY    64  64 100 S8G15     29.96F
OELWEIN        CLOUDY    64  64 100 CALM      29.97R
$$

...ELSEWHERE IN IOWA...


CITY           SKY/WX    TMP DP  RH WIND       PRES   REMARKS
DES MOINES     CLOUDY    66  63  90 S7        29.91R
IOWA CITY      LGT RAIN  65  63  93 S6        29.96R
FORT DODGE     CLOUDY    64  61  88 E3        29.88R
MARSHALLTOWN   CLOUDY    65  64  97 SE8       29.89S
CEDAR RAPIDS   CLOUDY    65  64  97 S8        29.94R
$$

...NORTHERN ILLINOIS...


CITY           SKY/WX    TMP DP  RH WIND       PRES   REMARKS
CHICAGO-OHARE  MOSUNNY   72  63  73 S7        30.01R
CHICAGO-MIDWAY MOSUNNY   73  61  65 SW9       30.02R
MOLINE         PTSUNNY   70  62  76 S9        29.95F
ROCKFORD       CLOUDY    73  64  73 S7        30.00F
PEORIA         MOSUNNY   68  62  81 S9        30.00F
$$

NOTE: "FAIR" INDICATES FEW OR NO CLOUDS BELOW 12,000 FEET WITH NO
SIGNIFICANT WEATHER AND/OR OBSTRUCTIONS TO VISIBILITY. WIND
SPEEDS ARE IN MILES-PER-HOUR.




USA.gov is the U.S. government's official web portal to all federal, state and local government web resources and services.